| time (UTC) | temp F | wind direction | speed knots | gust knots | rain 1hr in | rain 24hr in | rain mn in | humidity % | barometer mb |
| 20260507163712 | 32 | 0 | 2.6 | 4.3 | 0.00 | 0.00 | 0.00 | 100 | 943.5 |
| 20260507163215 | 32 | 0 | 5.2 | 6.1 | 0.00 | 0.00 | 0.00 | 100 | 943.5 |
| 20260507162630 | 32 | 0 | 4.3 | 5.2 | 0.00 | 0.00 | 0.00 | 100 | 943.5 |
| 20260507161817 | 32 | 0 | 4.3 | 7.0 | 0.00 | 0.00 | 0.00 | 100 | 943.5 |
| 20260507160928 | 32 | 0 | 3.5 | 9.6 | 0.00 | 0.00 | 0.00 | 100 | 943.4 |
| 20260507155342 | 32 | 0 | 4.3 | 6.1 | 0.00 | 0.00 | 0.00 | 100 | 943.5 |
| 20260507154942 | 32 | 0 | 5.2 | 8.7 | 0.00 | 0.00 | 0.00 | 100 | 943.4 |
| 20260507154540 | 32 | 0 | 5.2 | 7.0 | 0.00 | 0.00 | 0.00 | 100 | 943.4 |
| 20260507154140 | 32 | 0 | 5.2 | 7.8 | 0.00 | 0.00 | 0.00 | 100 | 943.5 |
| 20260507153740 | 32 | 0 | 5.2 | 7.0 | 0.00 | 0.00 | 0.00 | 100 | 943.5 |
| 20260507153231 | 32 | 0 | 6.1 | 8.7 | 0.00 | 0.00 | 0.00 | 100 | 943.5 |
| 20260507152713 | 32 | 0 | 5.2 | 7.0 | 0.00 | 0.00 | 0.00 | 100 | 943.6 |
| 20260507143046 | 32 | 0 | 5.2 | 6.1 | 0.00 | 0.00 | 0.00 | 100 | 943.0 |
| 20260507140325 | 32 | 0 | 3.5 | 4.3 | 0.00 | 0.00 | 0.00 | 100 | 942.3 |
| 20260507135925 | 32 | 0 | 3.5 | 4.3 | 0.00 | 0.00 | 0.00 | 100 | 942.3 |
| 20260507135525 | 32 | 0 | 3.5 | 4.3 | 0.00 | 0.00 | 0.00 | 100 | 942.3 |
| 20260507135124 | 32 | 0 | 1.7 | 3.5 | 0.00 | 0.00 | 0.00 | 100 | 942.4 |
| 20260507134724 | 32 | 0 | 1.7 | 2.6 | 0.00 | 0.00 | 0.00 | 100 | 942.5 |
| 20260507134322 | 32 | 0 | 2.6 | 3.5 | 0.00 | 0.00 | 0.00 | 100 | 942.5 |
| 20260507133922 | 32 | 0 | 2.6 | 5.2 | 0.00 | 0.00 | 0.00 | 100 | 942.5 |
| 20260507133522 | 32 | 0 | 2.6 | 4.3 | 0.00 | 0.00 | 0.00 | 100 | 942.5 |
| 20260507132628 | 32 | 0 | 5.2 | 7.0 | 0.00 | 0.00 | 0.00 | 100 | 942.5 |
| 20260507131834 | 32 | 0 | 7.0 | 9.6 | 0.00 | 0.00 | 0.00 | 100 | 942.3 |
| 20260507131434 | 32 | 0 | 7.0 | 10.4 | 0.00 | 0.00 | 0.00 | 100 | 942.3 |
| 20260507131033 | 32 | 0 | 7.8 | 11.3 | 0.00 | 0.00 | 0.00 | 100 | 942.2 |
| 20260507130633 | 32 | 0 | 4.3 | 7.0 | 0.00 | 0.00 | 0.00 | 100 | 942.3 |
| 20260507130234 | 32 | 0 | 4.3 | 6.1 | 0.00 | 0.00 | 0.00 | 100 | 942.2 |
| 20260507125832 | 32 | 0 | 3.5 | 5.2 | 0.00 | 0.00 | 0.00 | 100 | 942.2 |
| 20260507125432 | 32 | 0 | 2.6 | 4.3 | 0.00 | 0.00 | 0.00 | 100 | 942.1 |
| 20260507125032 | 32 | 0 | 1.7 | 3.5 | 0.00 | 0.00 | 0.00 | 100 | 942.0 |
| 20260507124631 | 32 | 0 | 1.7 | 3.5 | 0.00 | 0.00 | 0.00 | 100 | 942.0 |
| 20260507124231 | 32 | 0 | 2.6 | 4.3 | 0.00 | 0.00 | 0.00 | 100 | 942.0 |
| 20260507123829 | 32 | 0 | 2.6 | 4.3 | 0.00 | 0.00 | 0.00 | 100 | 942.0 |
| 20260507123429 | 32 | 0 | 6.1 | 7.8 | 0.00 | 0.00 | 0.00 | 100 | 941.9 |
| 20260507123029 | 32 | 0 | 8.7 | 13.9 | 0.00 | 0.00 | 0.00 | 100 | 941.7 |
| 20260507122628 | 32 | 0 | 5.2 | 9.6 | 0.00 | 0.00 | 0.00 | 100 | 941.7 |
| 20260507122229 | 32 | 0 | 2.6 | 5.2 | 0.00 | 0.00 | 0.00 | 100 | 941.7 |
| 20260507121827 | 32 | 0 | 4.3 | 7.8 | 0.00 | 0.00 | 0.00 | 100 | 941.7 |
| 20260507121427 | 32 | 0 | 3.5 | 5.2 | 0.00 | 0.00 | 0.00 | 100 | 941.6 |
| 20260507121027 | 32 | 0 | 3.5 | 6.1 | 0.00 | 0.00 | 0.00 | 100 | 941.6 |
| 20260507120619 | 32 | 0 | 3.5 | 7.0 | 0.00 | 0.00 | 0.00 | 100 | 941.6 |
| 20260507120217 | 32 | 0 | 5.2 | 8.7 | 0.00 | 0.00 | 0.00 | 100 | 941.6 |
| 20260507115814 | 32 | 0 | 3.5 | 7.0 | 0.00 | 0.00 | 0.00 | 100 | 941.6 |
| 20260507115413 | 32 | 0 | 4.3 | 7.0 | 0.00 | 0.00 | 0.00 | 100 | 941.6 |
| 20260507115013 | 32 | 0 | 4.3 | 7.0 | 0.00 | 0.00 | 0.00 | 100 | 941.6 |
| 20260507114613 | 32 | 0 | 3.5 | 5.2 | 0.00 | 0.00 | 0.00 | 100 | 941.6 |
| 20260507114213 | 32 | 0 | 4.3 | 25.2 | 0.00 | 0.00 | 0.00 | 100 | 941.6 |
| 20260507113811 | 32 | 0 | 3.5 | 5.2 | 0.00 | 0.00 | 0.00 | 100 | 941.7 |
| 20260507113411 | 32 | 0 | 4.3 | 7.0 | 0.00 | 0.00 | 0.00 | 100 | 941.7 |
| 20260507113010 | 32 | 0 | 1.7 | 2.6 | 0.00 | 0.00 | 0.00 | 100 | 941.7 |
| 20260507112610 | 32 | 0 | 4.3 | 7.8 | 0.00 | 0.00 | 0.00 | 100 | 941.6 |
| 20260507112210 | 32 | 0 | 3.5 | 7.0 | 0.00 | 0.00 | 0.00 | 100 | 941.7 |
| 20260507111808 | 32 | 0 | 4.3 | 7.8 | 0.00 | 0.00 | 0.00 | 100 | 941.7 |
| 20260507111408 | 32 | 0 | 5.2 | 7.0 | 0.00 | 0.00 | 0.00 | 100 | 941.6 |
| 20260507111008 | 32 | 0 | 3.5 | 5.2 | 0.00 | 0.00 | 0.00 | 100 | 941.7 |
| 20260507110608 | 32 | 0 | 3.5 | 6.1 | 0.00 | 0.00 | 0.00 | 100 | 941.7 |
| 20260507110208 | 32 | 0 | 4.3 | 7.0 | 0.00 | 0.00 | 0.00 | 100 | 941.6 |
| 20260507105806 | 32 | 0 | 4.3 | 8.7 | 0.00 | 0.00 | 0.00 | 100 | 941.6 |
| 20260507105406 | 32 | 0 | 3.5 | 5.2 | 0.00 | 0.00 | 0.00 | 100 | 941.6 |
| 20260507105005 | 32 | 0 | 3.5 | 5.2 | 0.00 | 0.00 | 0.00 | 100 | 941.6 |
| 20260507104606 | 32 | 0 | 5.2 | 8.7 | 0.00 | 0.00 | 0.00 | 100 | 941.6 |
| 20260507104205 | 32 | 0 | 4.3 | 7.0 | 0.00 | 0.00 | 0.00 | 100 | 941.6 |
| 20260507103803 | 32 | 0 | 3.5 | 5.2 | 0.00 | 0.00 | 0.00 | 100 | 941.6 |
| 20260507103403 | 32 | 0 | 3.5 | 5.2 | 0.00 | 0.00 | 0.00 | 100 | 941.5 |
| 20260507103004 | 32 | 0 | 3.5 | 7.0 | 0.00 | 0.00 | 0.00 | 100 | 941.5 |
| 20260507102603 | 32 | 0 | 3.5 | 5.2 | 0.00 | 0.00 | 0.00 | 100 | 941.6 |
| 20260507102203 | 32 | 0 | 4.3 | 7.0 | 0.00 | 0.00 | 0.00 | 100 | 941.6 |
| 20260507101801 | 32 | 0 | 3.5 | 4.3 | 0.00 | 0.00 | 0.00 | 100 | 941.6 |
| 20260507101401 | 32 | 0 | 3.5 | 6.1 | 0.00 | 0.00 | 0.00 | 100 | 941.7 |
| 20260507101001 | 32 | 0 | 3.5 | 5.2 | 0.00 | 0.00 | 0.00 | 100 | 941.6 |
| 20260507100600 | 32 | 0 | 5.2 | 10.4 | 0.00 | 0.00 | 0.00 | 100 | 941.6 |
| 20260507100200 | 32 | 0 | 3.5 | 7.0 | 0.00 | 0.00 | 0.00 | 100 | 941.5 |
| 20260507095758 | 32 | 0 | 2.6 | 4.3 | 0.00 | 0.00 | 0.00 | 100 | 941.5 |
| 20260507095358 | 32 | 0 | 3.5 | 6.1 | 0.00 | 0.00 | 0.00 | 100 | 941.5 |
| 20260507094958 | 32 | 0 | 5.2 | 7.8 | 0.00 | 0.00 | 0.00 | 100 | 941.5 |
| 20260507094551 | 32 | 0 | 6.1 | 10.4 | 0.00 | 0.00 | 0.00 | 100 | 941.5 |
| 20260507094149 | 32 | 0 | 2.6 | 3.5 | 0.00 | 0.00 | 0.00 | 100 | 941.5 |
| 20260507093746 | 32 | 0 | 2.6 | 5.2 | 0.00 | 0.00 | 0.00 | 100 | 941.6 |
| 20260507093345 | 32 | 0 | 2.6 | 3.5 | 0.00 | 0.00 | 0.00 | 100 | 941.5 |
| 20260507092944 | 32 | 0 | 2.6 | 5.2 | 0.00 | 0.00 | 0.00 | 100 | 941.5 |
| 20260507092544 | 32 | 0 | 4.3 | 7.0 | 0.00 | 0.00 | 0.00 | 100 | 941.4 |
| 20260507092144 | 32 | 0 | 3.5 | 5.2 | 0.00 | 0.00 | 0.00 | 100 | 941.4 |
| 20260507091743 | 32 | 0 | 4.3 | 9.6 | 0.00 | 0.00 | 0.00 | 100 | 941.3 |
| 20260507091343 | 32 | 0 | 3.5 | 5.2 | 0.00 | 0.00 | 0.00 | 100 | 941.3 |
| 20260507090942 | 32 | 0 | 2.6 | 5.2 | 0.00 | 0.00 | 0.00 | 100 | 941.3 |
| 20260507090542 | 32 | 0 | 2.6 | 4.3 | 0.00 | 0.00 | 0.00 | 100 | 941.2 |
| 20260507090142 | 32 | 0 | 3.5 | 6.1 | 0.00 | 0.00 | 0.00 | 100 | 941.1 |
| 20260507085740 | 32 | 0 | 4.3 | 9.6 | 0.00 | 0.00 | 0.00 | 100 | 941.0 |
| 20260507085340 | 32 | 0 | 5.2 | 8.7 | 0.00 | 0.00 | 0.00 | 100 | 940.9 |
| 20260507084939 | 32 | 0 | 6.1 | 11.3 | 0.00 | 0.00 | 0.00 | 100 | 940.9 |
| 20260507084539 | 32 | 0 | 7.0 | 13.0 | 0.00 | 0.00 | 0.00 | 100 | 940.7 |
| 20260507084140 | 32 | 0 | 5.2 | 10.4 | 0.00 | 0.00 | 0.00 | 100 | 940.8 |
| 20260507083738 | 32 | 0 | 5.2 | 10.4 | 0.00 | 0.00 | 0.00 | 100 | 940.8 |
| 20260507083338 | 32 | 0 | 6.1 | 9.6 | 0.00 | 0.00 | 0.00 | 100 | 940.8 |
| 20260507082937 | 32 | 0 | 5.2 | 13.0 | 0.00 | 0.00 | 0.00 | 100 | 940.7 |
| 20260507082537 | 32 | 0 | 6.1 | 10.4 | 0.00 | 0.00 | 0.00 | 100 | 940.7 |
| 20260507082137 | 32 | 0 | 7.0 | 13.9 | 0.00 | 0.00 | 0.00 | 100 | 940.7 |
| 20260507081735 | 32 | 0 | 7.0 | 13.9 | 0.00 | 0.00 | 0.00 | 100 | 940.7 |
| 20260507081335 | 32 | 0 | 6.1 | 8.7 | 0.00 | 0.00 | 0.00 | 100 | 940.7 |
| 20260507080935 | 32 | 0 | 6.1 | 11.3 | 0.00 | 0.00 | 0.00 | 100 | 940.6 |
| 20260507080535 | 32 | 0 | 7.0 | 12.2 | 0.00 | 0.00 | 0.00 | 100 | 940.6 |
| 20260507080135 | 32 | 0 | 7.8 | 12.2 | 0.00 | 0.00 | 0.00 | 100 | 940.5 |
| 20260507075733 | 32 | 0 | 5.2 | 9.6 | 0.00 | 0.00 | 0.00 | 100 | 940.4 |
| 20260507075333 | 32 | 0 | 6.1 | 12.2 | 0.00 | 0.00 | 0.00 | 100 | 940.3 |
| 20260507074933 | 32 | 0 | 5.2 | 11.3 | 0.00 | 0.00 | 0.00 | 100 | 940.4 |
| 20260507074532 | 32 | 0 | 7.0 | 12.2 | 0.00 | 0.00 | 0.00 | 100 | 940.4 |
| 20260507074132 | 32 | 0 | 5.2 | 8.7 | 0.00 | 0.00 | 0.00 | 100 | 940.3 |
| 20260507073730 | 32 | 0 | 6.1 | 10.4 | 0.00 | 0.00 | 0.00 | 100 | 940.3 |
| 20260507073330 | 32 | 0 | 3.5 | 6.1 | 0.00 | 0.00 | 0.00 | 100 | 940.4 |
| 20260507072930 | 32 | 0 | 3.5 | 6.1 | 0.00 | 0.00 | 0.00 | 100 | 940.3 |
| 20260507072522 | 32 | 0 | 1.7 | 5.2 | 0.00 | 0.00 | 0.00 | 100 | 940.4 |
| 20260507072121 | 32 | 0 | 4.3 | 7.0 | 0.00 | 0.00 | 0.00 | 100 | 940.3 |
| 20260507071718 | 32 | 0 | 3.5 | 4.3 | 0.00 | 0.00 | 0.00 | 100 | 940.3 |
| 20260507071317 | 32 | 0 | 3.5 | 7.0 | 0.00 | 0.00 | 0.00 | 100 | 940.4 |
| 20260507070916 | 32 | 0 | 2.6 | 4.3 | 0.00 | 0.00 | 0.00 | 100 | 940.5 |
| 20260507070516 | 32 | 0 | 3.5 | 4.3 | 0.00 | 0.00 | 0.00 | 100 | 940.5 |
| 20260507070116 | 32 | 0 | 2.6 | 5.2 | 0.00 | 0.00 | 0.00 | 100 | 940.4 |
| 20260507065714 | 32 | 0 | 1.7 | 3.5 | 0.00 | 0.00 | 0.00 | 100 | 940.4 |
| 20260507065314 | 32 | 0 | 4.3 | 7.8 | 0.00 | 0.00 | 0.00 | 100 | 940.3 |
| 20260507064914 | 32 | 0 | 1.7 | 4.3 | 0.00 | 0.00 | 0.00 | 100 | 940.3 |
| 20260507064514 | 32 | 0 | 4.3 | 7.0 | 0.00 | 0.00 | 0.00 | 100 | 940.2 |
| 20260507064114 | 32 | 0 | 3.5 | 10.4 | 0.00 | 0.00 | 0.00 | 100 | 940.3 |
| 20260507063712 | 32 | 0 | 3.5 | 5.2 | 0.00 | 0.00 | 0.00 | 100 | 940.3 |
| 20260507063312 | 32 | 0 | 1.7 | 3.5 | 0.00 | 0.00 | 0.00 | 100 | 940.4 |
| 20260507062911 | 32 | 0 | 3.5 | 6.1 | 0.00 | 0.00 | 0.00 | 100 | 940.4 |
| 20260507062511 | 32 | 0 | 5.2 | 8.7 | 0.00 | 0.00 | 0.00 | 100 | 940.4 |
| 20260507062111 | 32 | 0 | 5.2 | 7.0 | 0.00 | 0.00 | 0.00 | 100 | 940.4 |
| 20260507061709 | 32 | 0 | 7.8 | 11.3 | 0.00 | 0.00 | 0.00 | 100 | 940.4 |
| 20260507061309 | 32 | 0 | 6.1 | 11.3 | 0.00 | 0.00 | 0.00 | 100 | 940.4 |
| 20260507060909 | 32 | 0 | 6.1 | 10.4 | 0.00 | 0.00 | 0.00 | 100 | 940.5 |
| 20260507060509 | 32 | 0 | 7.8 | 14.8 | 0.00 | 0.00 | 0.00 | 100 | 940.4 |
| 20260507060109 | 32 | 0 | 6.1 | 10.4 | 0.00 | 0.00 | 0.00 | 100 | 940.4 |
| 20260507055707 | 32 | 0 | 5.2 | 8.7 | 0.00 | 0.00 | 0.00 | 100 | 940.5 |
| 20260507055307 | 32 | 0 | 4.3 | 7.0 | 0.00 | 0.00 | 0.00 | 100 | 940.5 |
| 20260507054907 | 32 | 0 | 1.7 | 3.5 | 0.00 | 0.00 | 0.00 | 100 | 940.5 |
| 20260507054506 | 32 | 0 | 2.6 | 6.1 | 0.00 | 0.00 | 0.00 | 100 | 940.5 |
| 20260507054106 | 32 | 0 | 3.5 | 7.8 | 0.00 | 0.00 | 0.00 | 100 | 940.4 |
| 20260507053704 | 32 | 0 | 2.6 | 5.2 | 0.00 | 0.00 | 0.00 | 100 | 940.3 |
| 20260507053304 | 32 | 0 | 4.3 | 8.7 | 0.00 | 0.00 | 0.00 | 100 | 940.3 |
| 20260507052904 | 32 | 0 | 7.0 | 12.2 | 0.00 | 0.00 | 0.00 | 100 | 940.2 |
| 20260507052504 | 32 | 0 | 6.1 | 9.6 | 0.00 | 0.00 | 0.00 | 100 | 940.3 |
| 20260507052104 | 32 | 0 | 2.6 | 7.0 | 0.00 | 0.00 | 0.00 | 100 | 940.4 |
| 20260507051702 | 32 | 0 | 2.6 | 7.8 | 0.00 | 0.00 | 0.00 | 100 | 940.4 |
| 20260507051302 | 32 | 0 | 3.5 | 7.0 | 0.00 | 0.00 | 0.00 | 100 | 940.6 |
| 20260507050902 | 32 | 0 | 0.9 | 3.5 | 0.00 | 0.00 | 0.00 | 100 | 940.7 |
| 20260507050213 | 32 | 0 | 2.6 | 5.2 | 0.00 | 0.00 | 0.00 | 100 | 940.7 |
| 20260507045813 | 32 | 0 | 4.3 | 7.8 | 0.00 | 0.00 | 0.00 | 100 | 940.7 |
| 20260507045413 | 32 | 0 | 3.5 | 5.2 | 0.00 | 0.00 | 0.00 | 100 | 940.7 |
| 20260507044742 | 32 | 0 | 6.1 | 8.7 | 0.00 | 0.00 | 0.00 | 100 | 940.5 |